Mobridge, SD

6:58 AM CST on December 09, 2016 (GMT -0600)
Mobridge Municipal

Weather History for KMBG - April, 2013

Change the Weather History Date:

Monday, April 8, 2013

  Actual Average Record
Temperature  
Mean Temperature 27 °F 42 °F  
Max Temperature 36 °F 55 °F 87 °F (1912)
Min Temperature 18 °F 30 °F 5 °F (1997)
Degree Days  
Heating Degree Days 38 23  
Month to date heating degree days 227 196  
Since 1 July heating degree days 7251 7198  
Cooling Degree Days 0 0  
Month to date cooling degree days 0 0  
Year to date cooling degree days 0 0  
Moisture  
Dew Point 27 °F    
Average Humidity 86    
Maximum Humidity 100    
Minimum Humidity 71    
Precipitation  
Precipitation 0.03 in 0.04 in 0.29 in (1953)
Month to date precipitation 0.05 0.25  
Year to date precipitation 1.39 1.88  
Snow  
Snow 0.00 in - - ()
Month to date snowfall T  
Since 1 July snowfall 29.0  
Snow Depth 0.00 in    
Sea Level Pressure  
Sea Level Pressure 29.87 in    
Wind  
Wind Speed 17 mph (NE)    
Max Wind Speed 28 mph    
Max Gust Speed 37 mph    
Visibility 6 miles    
Events Snow    
T = Trace of Precipitation, MM = Missing Value Source: NWS Daily Summary

Daily Weather History Graph

Daily Weather History Graph

Search for Another Location

Airport or City:

Trip Planner

Search our weather history database for the weather conditions in past years. The results will help you decide how hot, cold, wet, or windy it might be!

Date:

Astronomy

Apr. 08, 2013 Rise Set
Actual Time 7:08 AM CDT 8:19 PM CDT
Civil Twilight 6:37 AM CDT 8:49 PM CDT
Nautical Twilight 6:01 AM CDT 9:26 PM CDT
Astronomical Twilight 5:22 AM CDT 10:05 PM CDT
Moon 6:03 AM CDT (4/8) 6:52 PM CDT (4/8)
Length of Visible Light 14h 11m
Length of Day
13h 11m
Waning Crescent, 3% of the Moon is Illuminated
Apr 8
Waning Crescent
Apr 10
New
Apr 18
First Quarter
Apr 25
Full
May 2
Last Quarter

Hourly Weather History & Observations

Time (CDT) Temp. Windchill Dew Point Humidity Pressure Visibility Wind Dir Wind Speed Gust Speed Precip Events Conditions
12:06 AM 33.8 °F 23.5 °F 30.2 °F 87% 29.65 in 4.0 mi East 16.1 mph - N/A   Mostly Cloudy
12:16 AM 33.8 °F 23.9 °F 32.0 °F 93% 29.65 in 1.8 mi East 15.0 mph 24.2 mph N/A   Overcast
12:52 AM 35.1 °F 25.9 °F 33.1 °F 92% 29.69 in 1.8 mi East 13.8 mph - N/A   Overcast
1:52 AM 34.0 °F 25.5 °F 33.1 °F 96% 29.71 in 1.0 mi East 11.5 mph - N/A   Overcast
2:25 AM 33.8 °F 30.8 °F 33.8 °F 100% 29.67 in 3.0 mi Variable 3.5 mph - N/A   Overcast
2:52 AM 33.1 °F 25.5 °F 32.0 °F 96% 29.71 in 3.0 mi SSE 9.2 mph - N/A   Overcast
3:36 AM 33.8 °F 25.3 °F 32.0 °F 93% 29.68 in 2.5 mi East 11.5 mph - N/A   Overcast
3:47 AM 33.8 °F - 33.8 °F 100% 29.69 in 3.0 mi Calm Calm - N/A   Overcast
3:52 AM 33.1 °F 30.0 °F 33.1 °F 100% 29.72 in 2.5 mi Variable 3.5 mph - N/A   Overcast
4:05 AM 33.8 °F 25.8 °F 32.0 °F 93% 29.69 in 3.0 mi ENE 10.4 mph 16.1 mph 0.00 in   Overcast
4:39 AM 33.8 °F 24.3 °F 32.0 °F 93% 29.67 in 4.0 mi ENE 13.8 mph - 0.00 in   Overcast
4:52 AM 34.0 °F 27.2 °F 32.0 °F 92% 29.70 in 4.0 mi ENE 8.1 mph - 0.00 in   Overcast
5:52 AM 34.0 °F 23.4 °F 32.0 °F 92% 29.69 in 5.0 mi NE 17.3 mph - N/A   Overcast
6:00 AM 33.8 °F 23.5 °F 32.0 °F 93% 29.66 in 5.0 mi ENE 16.1 mph - N/A   Overcast
6:23 AM 33.8 °F 23.9 °F 32.0 °F 93% 29.65 in 6.0 mi ENE 15.0 mph 24.2 mph N/A   Scattered Clouds
6:35 AM 33.8 °F 23.2 °F 32.0 °F 93% 29.65 in 6.0 mi ENE 17.3 mph - N/A   Mostly Cloudy
6:52 AM 34.0 °F 22.1 °F 32.0 °F 92% 29.68 in 6.0 mi ENE 21.9 mph 27.6 mph N/A   Overcast
7:52 AM 34.0 °F 28.0 °F 33.1 °F 96% 29.75 in 7.0 mi NE 6.9 mph - N/A   Overcast
8:52 AM 34.0 °F 23.4 °F 30.9 °F 89% 29.76 in 10.0 mi ENE 17.3 mph 23.0 mph N/A   Overcast
9:52 AM 35.1 °F 26.9 °F 30.9 °F 85% 29.81 in 10.0 mi ENE 11.5 mph - N/A   Overcast
10:41 AM 35.6 °F 28.0 °F 30.2 °F 81% 29.83 in 10.0 mi NNE 10.4 mph - N/A   Overcast
10:52 AM 35.1 °F 26.9 °F 30.9 °F 85% 29.88 in 10.0 mi NE 11.5 mph - N/A   Overcast
11:50 AM 33.8 °F 24.3 °F 30.2 °F 87% 29.86 in 1.8 mi NE 13.8 mph - 0.00 in Snow Light Snow
11:52 AM 34.0 °F 25.0 °F 30.0 °F 85% 29.91 in 1.5 mi NE 12.7 mph - 0.00 in Snow Light Snow
12:40 PM 35.6 °F 25.2 °F 32.0 °F 87% 29.87 in 2.5 mi NE 18.4 mph 24.2 mph 0.03 in Snow Light Snow
12:52 PM 34.0 °F 22.4 °F 32.0 °F 92% 29.91 in 2.5 mi NNE 20.7 mph 26.5 mph 0.03 in Snow Light Snow
1:00 PM 33.8 °F 22.5 °F 30.2 °F 87% 29.87 in 2.0 mi NNE 19.6 mph 27.6 mph 0.00 in Snow Light Snow
1:13 PM 33.8 °F 21.0 °F 30.2 °F 87% 29.87 in 4.0 mi NNE 25.3 mph 29.9 mph 0.00 in Snow Light Snow
1:52 PM 30.9 °F 18.7 °F 28.9 °F 92% 29.96 in 10.0 mi NNE 19.6 mph 28.8 mph 0.00 in   Overcast
2:16 PM 30.2 °F 17.4 °F 26.6 °F 86% 29.92 in 10.0 mi NNE 20.7 mph 29.9 mph N/A   Overcast
2:52 PM 28.9 °F 14.5 °F 25.0 °F 85% 30.01 in 10.0 mi NNE 25.3 mph 33.4 mph N/A   Overcast
3:52 PM 28.0 °F 14.3 °F 23.0 °F 81% 30.05 in 10.0 mi North 21.9 mph 31.1 mph N/A   Overcast
4:52 PM 26.1 °F 11.0 °F 19.9 °F 78% 30.06 in 10.0 mi North 24.2 mph 33.4 mph 0.00 in   Overcast
5:06 PM 26.6 °F 12.4 °F 19.4 °F 74% 30.00 in 10.0 mi North 21.9 mph 31.1 mph 0.00 in   Overcast
5:52 PM 26.1 °F 12.7 °F 19.9 °F 78% 30.07 in 10.0 mi NNE 18.4 mph 31.1 mph 0.00 in   Overcast
6:05 PM 24.8 °F 9.6 °F 19.4 °F 80% 30.01 in 10.0 mi North 23.0 mph 35.7 mph N/A   Overcast
6:26 PM 24.8 °F 8.4 °F 19.4 °F 80% 30.02 in 10.0 mi North 27.6 mph 32.2 mph N/A   Overcast
6:52 PM 24.1 °F 8.3 °F 18.0 °F 77% 30.11 in 10.0 mi North 24.2 mph 32.2 mph N/A   Overcast
7:22 PM 23.0 °F 7.6 °F 17.6 °F 80% 30.06 in 10.0 mi North 21.9 mph 31.1 mph N/A   Overcast
7:35 PM 23.0 °F 7.2 °F 17.6 °F 80% 30.07 in 10.0 mi NNE 23.0 mph 32.2 mph N/A   Overcast
7:52 PM 21.9 °F 5.1 °F 16.0 °F 78% 30.14 in 10.0 mi North 25.3 mph 31.1 mph N/A   Overcast
8:52 PM 21.0 °F 5.7 °F 14.0 °F 74% 30.18 in 6.0 mi North 19.6 mph 32.2 mph 0.00 in Snow Light Snow
9:52 PM 19.9 °F 4.8 °F 12.0 °F 71% 30.23 in 10.0 mi North 18.4 mph 32.2 mph 0.00 in   Overcast
10:52 PM 19.9 °F 3.5 °F 12.0 °F 71% 30.25 in 10.0 mi North 21.9 mph 31.1 mph N/A   Overcast
11:52 PM 19.0 °F 3.6 °F 12.0 °F 74% 30.24 in 10.0 mi NNE 18.4 mph 31.1 mph N/A   Overcast